CZ-3C DEB, 40858

Orbit data source: Space-Track

CZ-3C DEB, 40858 is space debris in HEO originally from a launch on Fri, 24 Feb 2012 UTC launched from the Xichang Space Center, China (XSC). Debris objects in space refer to the collection of defunct objects orbiting the Earth. Examples of debris include non-operational satellites, rocket bodies, and fragments generated from explosions, collisions, or faulty payload assembly.

Loading next visibility...
Identifier
40858, 2012-008Y
Orbit
HEO
Country
Flag of CNCN / PRC
Related business
Manufacturer
CALT
Mission
Spacecraft
Bus & Motor
Unknown
Mass
Unknown
Launch date (UTC)
2012-02-24 (14 years ago)
Launch vehicle
Unknown
Launch site
Xichang Space Center, China (XSC)
Object type
Payload
Rocket body
Debris
Shape & HBR
Unknown shape, 0.1 m
Radar Cross Section
Medium (>0.1 m² and <1 m²)

Expand to show TLE details & history
Last TLE update: 1 week ago

TLE from 1 week ago
0 CZ-3C DEB
1 40858U 12008Y   26229.01458363 -.00000088  00000-0  91289-3 0  9996
2 40858  18.6430  50.2258 7285162 222.8349  49.0777  2.12265153 90518
Epoch: 2026-08-17T00:21Z
TLE epoch observation values (Epoch: 2026-08-17T00:21:00.025Z)
Latitude
-0.00014°
Longitude
79.60349°
Altitude
19,388.685 km
Speed
3.918 km/s
True Right ascension
03h 21m 01s
True Declination
0° 00' 01"
Sunlit
Object was in daylight at epoch
Visualization orbit readout
Latitude
Unknown
Longitude
Unknown
Altitude
Unknown
Speed
Unknown
Apparent Right ascension
Unknown
Apparent Declination
Unknown
Sunlit
N/A
Visualization observer readout
Local Sidereal Time
23:04:48
Azimuth
Unknown
Elevation
Unknown
Doppler factor
Unknown
Orbital elements
Apogee altitude
37,836.574 km
Perigee altitude
566.303 km
Semi-major axis
25,579.575 km
Eccentricity
0.72852
Inclination
18.643°
RAAN
50.2258°
Arg. of periapsis
222.8349°
True anomaly
137.31716°
Mean anomaly
49.0777°
Eccentric anomaly
90.81439°
Mean motion
0.53052 °/min
Orbital period
678.58 mins
BSTAR
0.00091289
Loading maneuver chart data...
Computing Atmospheric mass density...
Loading historical data...
Loading historical data...
Loading historical data...
Loading historical data...
Loading historical data...
Loading historical data...
Loading historical data...

Documentation

Showing up to 5 results
|